Regional Weather Roundup
Issued by NWS

Home | Current Version | Previous Version | Graphics & Text | Print | Product List | Glossary On
Versions: 1 2 3 4 5 6 7 8 9 10 11 12 13 14 15 16 17 18 19 20 21 22 23 24 25 26 27 28 29 30 31 32 33 34 35 36 37 38 39 40 41 42 43 44 45 46 47 48 49 50
000
ASUS45 KBOU 290607
RWRCO

WEATHER ROUNDUP FOR COLORADO
NATIONAL WEATHER SERVICE DENVER/BOULDER CO
1200 AM MDT MON AUG 29 2016

NOTE: "FAIR" INDICATES FEW OR NO CLOUDS BELOW 12000 FEET WITH NO
SIGNIFICANT WEATHER AND/OR OBSTRUCTIONS TO VISIBILITY.

COZ001>005-013-030-031-290700-
...NORTHWEST COLORADO...

CITY           SKY/WX    TMP DP  RH WIND       PRES   REMARKS
CRAIG          FAIR      56  40  55 E3        30.31F
HAYDEN         FAIR      57  36  44 E14       30.34S
MEEKER         FAIR      51  42  71 NE5       30.33S
MOUNT WERNER   NOT AVBL
STEAMBOAT SPGS FAIR      52  39  60 CALM      30.37F
WALDEN         FAIR      45  36  70 SE3       30.46S
$$

COZ006>008-011-290700-
...WEST CENTRAL VALLEYS...

CITY           SKY/WX    TMP DP  RH WIND       PRES   REMARKS
GRAND JUNCTION FAIR      64  44  48 SE8       30.23F
MONTROSE       FAIR      59  45  59 SE13      30.32F
EAGLE          FAIR      54  48  82 W3        30.40F
RIFLE          FAIR      58  50  75 CALM      30.29S
DELTA          FAIR      63  47  55 CALM      30.28S
NUCLA          NOT AVBL
$$

COZ017>023-064>068-290700-
...SOUTHWEST COLORADO...

CITY           SKY/WX    TMP DP  RH WIND       PRES   REMARKS
DURANGO        FAIR      53  42  66 CALM      30.31S
CORTEZ         FAIR      52  47  83 CALM      30.26F
PAGOSA SPRINGS MOCLDY    54  40  59 N5        30.39S
TELLURIDE      FAIR      46  43  91 SE7       30.49S
WOLF CREEK PAS MOCLDY    36  34  93 MISG      30.66F
$$

COZ009-010-012-014-032>034-037-058>063-290700-
...CENTRAL COLORADO...

CITY           SKY/WX    TMP DP  RH WIND       PRES   REMARKS
ASPEN          FAIR      49  40  71 SW8       30.42F
BUENA VISTA    CLOUDY    52  44  75 E5        30.51R
COPPER MTN     FAIR      45  32  61 E3        30.69S
BERTHOUD PASS  FAIR      37  27  65 E21       30.72S
COTTONWOOD PAS CLOUDY    48  41  76 E5        30.59F
GUNNISON       FAIR      48  39  71 CALM      30.46S
KREMMLING      MOCLDY    50  43  76 SE5       30.46S
LEADVILLE      MOCLDY    40  38  93 E5        30.56F
MONARCH PASS   FOG       36  36 100 E25       30.74R VSB<1/4
SALIDA         CLOUDY    56  43  61 E3        30.56R
SUNLIGHT       FAIR      43  37  81 SW5       30.61F
WILKERSON PASS CLOUDY    41  36  81 N9        30.68F
$$

COZ069>075-290700-
...SAN LUIS VALLEY/SANGRE DE CRISTO MOUNTAINS...

CITY           SKY/WX    TMP DP  RH WIND       PRES   REMARKS
ALAMOSA        LGT RAIN  53  49  86 NE8       30.41R
LA VETA PASS   RAIN      45  43  93 CALM      30.56R
SAGUACHE       CLOUDY    54  43  66 N13       30.44F
$$

COZ035-036-038>040-290700-
...NORTHERN COLORADO FRONT RANGE...

CITY           SKY/WX    TMP DP  RH WIND       PRES   REMARKS
DENVER INTL AP LGT RAIN  63  47  55 S12       30.25F
DMNS CITY PARK   N/A     65  47  50 SW10G16   30.28F
AURORA         MOCLDY    64  45  50 SW9       30.30F
FRONT RANGE AP NOT AVBL
ERIE MUNI ARPT FAIR      66  44  44 SW8       30.28S
BOULDER MUN AP FAIR      68  45  42 SW8       30.28F
CENTENNIAL     MOCLDY    63  46  54 S13       30.33S
BROOMFIELD     FAIR      64  45  48 SW10      30.31F
FORT COLLINS   FAIR      64  48  55 SW9       30.25R
LONGMONT       FAIR      67  48  50 SW6       30.29F
$$

COZ041-046-047-076>085-087-088-290700-
...PIKES PEAK/PALMER DIVIDE AND SOUTHERN FOOTHILLS...

CITY           SKY/WX    TMP DP  RH WIND       PRES   REMARKS
COLO. SPRINGS  TSTM      56  54  93 W16       30.42R
A. F. ACADEMY  RAIN      54  52  94 W5        30.43R FOG
SCHRIEVER AFB  NOT AVBL
ELLICOTT       NOT AVBL
FALCON         RAIN      53  50  90 W17       30.42S
FORT CARSON    HVY RAIN  57  52  84 NW14      30.38R
LIMON          TSTM      57  55  93 NE5       30.28F
MONUMENT HILL  CLOUDY    50  48  93 W9G16     30.45S
TRINIDAD       FAIR      68  49  50 MISG      30.26R
$$

COZ042>045-048>051-090-091-290700-
...NORTHEAST COLORADO...

CITY           SKY/WX    TMP DP  RH WIND       PRES   REMARKS
GREELEY ARPT   FAIR      63  50  63 NW6       30.24R
AKRON          FAIR      67  45  45 SW5       30.20F
BURLINGTON     FAIR      66  59  78 S9        30.20S
WRAY           NOT AVBL
STERLING       FAIR      66  48  52 SE6       30.14S
HOLYOKE        FAIR      63  59  88 SW3       30.18R
FORT MORGAN    FAIR      65  50  57 SE13G21   30.19R
$$

COZ086-089-092>099-290700-
...SOUTHEAST COLORADO...

CITY           SKY/WX    TMP DP  RH WIND       PRES   REMARKS
PUEBLO         TSTM      62  56  80 NW33G40   30.24F
LA JUNTA       FAIR      71  57  61 SE7       30.16F
LAMAR          FAIR      68  60  75 SE7       30.14S
SPRINGFIELD      N/A     62  62 100 S8        30.20S
$$



USA.gov is the U.S. government's official web portal to all federal, state and local government web resources and services.